星链-37230(STARLINK-37230)

导读

STARLINK-37230(NORAD编号68730)是SpaceX星链(Starlink)星座中的一颗低轨互联网通信卫星,属于SpaceX打造全球卫星互联网系统的组成部分。星链星座计划通过大规模低轨卫星组网,为全球偏远和网络欠发达地区提供高速互联网接入服务。作为低轨卫星,它运行在近地轨道,具备较短的通信延迟,卫星配备相控阵天线与推进系统,可实现姿态控制和轨道调整,保障星座通信服务的稳定运行,目前在轨提供网络通信服务。

Basic Information
目录编号:
68730
目录名称:
STARLINK-37230
国际标识:
2026-082C
轨道中心:
EARTH
卫星名称:
星链-37230
卫星全名:
星链-37230(STARLINK-37230)
卫星状态:
在轨 (已飞行143 天)
发射日期:
2026-04-15 UTC
国别 :
美国 (US)
星等 :
--
Orbit Information
数据来源 国际轨道数据
星历时间: 2026-09-05T09:56:09+0800
8小时前
查看轨道信息
半长轴: 6843.721km
偏心率: 0.0001989
轨道倾角: 97.284°
近地点辐角 89.971°
升交点赤经 110.472°
平近点角 270.176°
近地点: 464.222km
远地点: 466.946km
周期: 93.907分钟
每日圈数: 15.334314
Detailed Information
固有亮度:
5
最大亮度:
2.5
卫星平台:
Starlink V1.0
覆盖范围:
全球
运营商:
太空探索技术公司
运营商所在国:
美国
制造商(研发单位):
太空探索技术公司
制造商所在国:
美国
使用方式:
暂无
Satellite Introduction
Starlink 计划是 SpaceX 推出的全球卫星互联网项目,通过发射低轨道卫星,为全球尤其是偏远地区提供高速、低延迟的互联网服务。自 2019 年起,Starlink 已部署数千颗卫星,旨在缩小全球数字鸿沟,推动互联网普及。该项目还为军事、航空等行业提供通信支持,带来广泛经济效益。
2D Orbit Map
3D Orbit Map
Orbit Altitude Analysis Chart
Orbit Inclination Analysis Chart
Orbit Comprehensive Analysis Chart
View Comprehensive Chart
Conjunction Data List
Event ID Objects TCA Miss Dist (km) Collision Risk Probability Collision Risk Index (CRI) Action
CDM_260905-213905-249106-873022
2026-09-05T
21:39:51+0000
2.059 km
极远距离
2.615821E-6 低风险 0.43
CDM_260905-055005-285906-873021
2026-09-05T
05:50:15+0000
2.507 km
极远距离
1.743891E-6 低风险 0.4
CDM_260906-114805-245406-873021
2026-09-06T
11:48:26+0000
2.727 km
极远距离
1.464927E-6 低风险 0.38
CDM_260903-065905-284406-873022
2026-09-03T
06:59:05+0000
2.788 km
极远距离
1.46074E-6 低风险 0.38
CDM_260903-075205-230506-873022
2026-09-03T
07:52:59+0000
2.973 km
极远距离
1.182663E-6 低风险 0.36
CDM_260907-080405-237006-873021
2026-09-07T
08:04:49+0000
2.744 km
极远距离
9.397023E-7 极低风险 0.34